Volver al catálogo

NOAA 16 DEB

ActivoPO
NORAD 41707·DEBRIS·🇺🇸 United States

Lanzado Sep 21, 2000 desde Vandenberg Space Force Base

Loading…

Próximos Pases (próximas 24 horas)

TLE

ActualizadoSource: Space-Track

Época: Sep 14, 2026, 06:29 UTC

1 41707U 00055PM  26257.27041746  .00005376  00000-0  12946-2 0  9997
2 41707  98.8501  53.4236 0021185 213.8991 146.0851 14.53577201541881

Sigue NOAA 16 DEB en tiempo real con AllMySat

Download on the App Store